Location: Unspecified
(40.7945°N, 111.1337°W)
Time: 00:14:49
(UTC-06:00)

Cosmos 1674 - Pass Details

Date: 22 March 2019
Orbit: 497 x 518 km, 82.5° (Epoch: 25 April)

Event Time Altitude Azimuth Distance (km) Brightness Sun altitude
Rises 20:30:59 0° 12° (NNE) 2,605 6.3 -10.7°
Reaches altitude 10° 20:33:57 10° 38° (NE) 1,719 5.1 -11.2°
Maximum altitude 20:36:03 14° 72° (ENE) 1,468 4.5 -11.6°
Enters shadow 20:36:07 14° 73° (ENE) 1,468 4.5 -11.6°
